Location: Miles
(41.4492°N, 81.6087°W)
Time: 20:41:51
(UTC+00:00)

Vanguard 2 Rocket - Pass Details

Date: 28 September 2024
Orbit: 553 x 3298 km, 32.9° (Epoch: 11 October)

Event Time Altitude Azimuth Distance (km) Brightness Sun altitude
Rises 10:46:10 0° 261° (W) 5,240 - -7.3°
Exits shadow 10:48:58 - 251° (WSW) 4,982 10.0 -6.8°
Reaches altitude 10° 10:52:19 10° 237° (WSW) 4,855 10.1 -6.1°
Maximum altitude 10:57:44 13° 214° (SW) 5,050 10.4 -5.1°
Drops below altitude 10° 11:04:00 10° 192° (SSW) 5,731 10.8 -4.0°
Sets 11:13:16 0° 170° (S) 7,152 11.6 -2.2°
